Flag for Canada Weather past 2 weeks in Victoria, British Columbia, Canada

Now
46 °F

Broken clouds.


Feels Like: 43 °F
Forecast: 45 / 47 °F
Wind: 7 mph from North

Location: Victoria Int. Airportb. C.

Current Time: Feb 1, 2015 at 4:12:59 PM

Latest Report: Feb 1, 2015 at 3:00 PM


Visibility: 10 mi

Pressure: 29.98 "Hg

Humidity: 93%

Dew point: 45 °F

Location of VictoriaLocation

Historic Weather in Victoria — Graph

°F

Victoria temperature yesterday

Maximum temperature yesterday: 45 °F (at 12:00 PM)
Minimum temperature yesterday: 37 °F (at 5:00 AM)
Average temperature yesterday: 41 °F

Past Weeks' High & Low Weather Summary

 TemperatureHumidityPressure
High59 °F (Jan 24, 4:00 PM)100% (Jan 17, 2:00 PM)30.47 "Hg (Jan 17, 2:00 PM)
Low32 °F (Jan 21, 4:00 AM)66% (Jan 30, 2:00 PM)29.47 "Hg (Jan 18, 1:00 AM)
Average44 °F93%30.20 "Hg
* Reported Jan 17 2:00 PM — Feb 1 2:47 PM, Victoria, Weather by CustomWeather, © 2014

Note: Actual official high and low records may vary slightly from our data, if they occured in-between our weather recording intervals... More about our weather records

Advertising

Victoria weather history for previous 24 hours

 ConditionsComfort  
Time TempWeatherWind HumidityBarometerVisibility
2:47 PM
Feb 1
46 °FBroken clouds.8 mph93%29.98 "Hg10 mi
2:01 PM45 °FLight rain. Cloudy.5 mph93%29.98 "Hg7 mi
1:00 PM45 °FLight rain. Mostly cloudy.6 mph93%30.00 "Hg7 mi
12:00 PM43 °FLight rain. Fog.5 mph100%30.00 "Hg6 mi
11:00 AM45 °FLight rain. Mostly cloudy.6 mph93%30.00 "Hg10 mi
10:00 AM43 °FMore clouds than sun.3 mph93%29.98 "Hg20 mi
9:00 AM43 °FCloudy.6 mph93%29.99 "Hg20 mi
8:00 AM41 °FMore clouds than sun.5 mph100%29.99 "Hg20 mi
7:00 AM41 °FMostly cloudy.No wind100%30.01 "Hg15 mi
6:00 AM43 °FMostly cloudy.5 mph93%30.03 "Hg15 mi
5:00 AM43 °FLight rain. Mostly cloudy.5 mph93%30.05 "Hg15 mi
4:00 AM43 °FLight rain. Overcast.5 mph93%30.07 "Hg15 mi
3:00 AM43 °FOvercast.7 mph93%30.08 "Hg15 mi
2:00 AM43 °FOvercast.7 mph93%30.09 "Hg15 mi
1:00 AM41 °FOvercast.2 mph100%30.10 "Hg12 mi
12:00 AM43 °FOvercast.3 mph93%30.12 "Hg10 mi
11:00 PM
Jan 31
43 °FMostly cloudy.5 mph93%30.14 "Hg12 mi
10:00 PM43 °FLight rain. Fog.6 mph100%30.15 "Hg5 mi
9:00 PM43 °FLight rain. Fog.5 mph100%30.16 "Hg5 mi
8:00 PM43 °FLight rain. Mostly cloudy.2 mph100%30.16 "Hg10 mi
7:00 PM43 °FFog.2 mph93%30.18 "Hg15 mi
6:00 PM45 °FPassing clouds.5 mph87%30.19 "Hg20 mi
5:00 PM45 °FMostly cloudy.5 mph87%30.19 "Hg20 mi
4:00 PM45 °FOvercast.3 mph87%30.20 "Hg20 mi
Weather by CustomWeather, © 2014

See weather overviewHow to use our weather pages